RH
36 38 39 40 41 40 39 38 38 38 39 41 42 37 37 40 41 42 44 46 49 52 53 53 52 50 46 43 43 44 46 47 49 50 50 47 44 44 47 49 50 50 48 46 46 47 47 46 44 45 46 46 48 50 50 48 48 46 46 45 44 44 43 43 42 41 40 40 40 40 41 41 42 42 42 43 44 45 45 46 46 46 46 45 45
35 37 40 41 41 41 41 41 40 40 42 45 44 39 40 43 42 41 42 43 47 51 53 54 53 52 51 50 49 50 50 49 49 51 53 50 45 42 43 45 48 50 50 50 50 50 48 47 46 46 45 45 46 47 47 47 49 49 48 45 44 43 43 44 44 42 41 40 40 41 40 41 43 43 43 42 42 42 43 43 43 45 46 47 48
34 36 39 41 42 42 41 40 39 40 45 47 43 40 40 41 40 40 40 40 43 47 51 53 53 52 52 52 53 54 56 57 56 54 54 53 48 43 42 44 47 53 57 58 57 54 51 53 56 53 49 47 45 45 45 46 48 49 48 44 42 41 42 43 43 42 39 36 36 38 39 39 39 40 42 42 42 41 40 39 39 41 43 45 47
33 36 39 41 43 42 41 40 39 39 44 45 41 38 39 40 39 38 39 40 41 43 45 48 50 52 53 54 54 55 57 61 62 59 56 54 51 48 47 47 49 53 55 56 56 54 50 51 55 56 53 49 45 43 44 45 46 45 44 43 42 43 44 45 46 45 44 40 36 34 34 33 34 35 36 37 39 41 41 40 39 39 41 43 45
31 35 39 41 42 42 41 41 39 38 41 42 39 38 38 40 40 40 39 40 41 43 43 43 43 47 52 56 57 58 61 64 66 64 61 56 53 49 46 47 49 49 47 47 47 47 46 47 48 49 51 49 46 43 41 42 43 44 44 44 45 46 47 48 48 49 50 50 46 41 36 32 31 31 30 31 33 35 37 37 38 40 43 44 44
30 33 36 38 39 39 39 40 38 37 38 39 37 36 37 39 40 40 39 39 40 41 42 42 41 43 48 53 55 58 64 68 70 69 65 60 53 48 44 46 49 51 50 49 45 43 44 45 45 46 46 48 51 51 45 42 45 47 47 47 48 48 49 49 49 48 47 48 47 46 44 39 36 34 32 31 31 31 32 33 34 38 43 46 46
28 29 31 32 33 34 35 37 38 38 39 38 36 36 36 37 39 40 39 40 40 40 41 43 43 41 43 46 50 53 59 68 73 71 67 63 57 50 46 48 49 51 52 51 47 44 44 46 48 50 50 52 58 61 59 57 58 56 54 53 50 48 46 44 42 42 43 43 44 44 45 43 42 42 41 38 36 34 33 33 34 34 37 42 45
27 28 27 27 27 28 30 33 35 38 40 39 37 37 37 36 37 39 40 40 40 39 40 43 45 45 44 44 44 47 53 64 70 67 63 63 60 53 49 50 50 52 54 54 52 49 47 48 52 57 59 62 65 68 70 72 72 66 60 55 50 45 42 38 38 41 43 44 44 44 44 44 46 48 49 48 45 42 39 37 37 38 37 37 40
30 29 28 26 25 25 26 29 31 34 37 37 36 36 37 37 36 37 39 40 41 40 40 43 47 52 54 52 49 47 52 62 66 63 59 60 61 59 55 53 52 52 55 58 60 59 58 57 58 59 61 65 68 69 71 74 74 68 61 53 45 41 42 44 45 45 44 43 43 43 45 47 47 49 51 52 51 50 48 43 42 44 44 40 39
36 33 31 30 27 26 26 27 27 29 31 33 34 34 36 37 37 38 38 39 40 40 40 43 49 53 54 55 54 53 56 64 67 66 62 59 58 58 56 53 51 53 57 60 62 64 65 64 63 63 63 63 65 66 68 69 68 63 56 48 41 41 47 50 47 43 41 40 42 44 45 45 45 45 48 51 53 54 53 50 47 47 49 48 45
44 40 37 35 32 30 29 29 28 27 27 29 31 33 34 36 37 39 39 40 41 41 41 44 47 50 50 50 53 55 59 66 68 66 63 58 53 52 50 50 51 56 60 61 58 57 58 58 59 61 61 60 60 61 61 60 59 56 52 45 40 42 47 47 44 41 40 41 43 46 46 45 42 41 43 47 51 53 53 52 49 48 49 50 50
47 45 43 40 37 35 33 32 31 29 27 27 29 31 33 34 36 38 39 40 41 42 44 44 44 45 47 49 52 54 58 63 65 63 61 58 53 48 46 46 49 54 56 54 53 53 53 54 56 58 57 55 54 53 51 51 53 54 51 46 42 42 44 43 42 41 41 41 42 44 46 46 44 43 43 43 45 49 51 50 47 46 46 47 48
47 46 46 45 43 41 39 37 36 33 29 27 28 30 33 34 34 36 38 40 41 43 45 46 43 42 43 47 51 53 55 59 62 61 59 57 52 48 46 46 47 49 50 49 49 52 54 55 57 56 52 48 47 47 47 50 52 52 48 44 42 42 43 42 42 41 41 41 40 40 42 44 45 45 44 42 41 44 48 49 46 42 42 43 43
50 49 48 48 47 45 44 42 40 38 34 29 29 30 33 34 35 36 38 40 41 42 44 46 45 43 43 44 46 49 52 55 58 56 54 52 51 50 50 50 47 47 49 48 46 46 48 50 51 49 46 46 46 47 50 53 52 49 44 41 40 42 43 42 41 39 39 38 37 37 39 41 43 44 43 42 40 40 42 47 46 42 40 40 40
53 52 52 51 50 48 47 46 45 43 38 32 30 30 32 34 35 37 39 39 41 42 44 46 47 46 44 42 42 44 46 49 52 52 51 50 51 53 56 55 54 53 52 49 46 44 44 44 45 44 44 45 46 48 50 49 47 45 43 40 40 40 41 40 38 37 36 36 35 36 36 39 41 43 43 42 41 40 39 42 43 43 43 43 42
58 58 56 55 53 52 50 50 49 46 41 36 31 31 33 35 35 37 39 40 40 42 44 46 47 47 46 43 40 40 40 42 45 49 51 51 51 54 56 57 57 57 55 51 47 43 42 42 43 43 43 45 46 46 47 47 46 48 47 44 40 38 38 38 36 35 35 35 35 35 35 36 39 40 42 41 40 39 38 38 38 38 40 42 43
63 63 62 59 57 55 53 52 52 49 43 38 34 33 34 35 36 37 39 40 41 41 44 46 47 47 46 44 41 39 38 39 41 44 48 50 51 54 56 55 55 56 55 53 48 44 42 42 43 43 44 45 46 47 49 51 54 54 50 45 40 38 38 38 36 35 35 34 35 35 35 36 37 39 40 40 38 38 36 36 35 34 33 34 36
66 67 66 64 61 58 56 55 54 51 45 40 38 38 38 37 37 38 40 42 43 43 44 45 46 45 44 43 42 40 39 39 41 42 44 46 47 49 51 52 52 54 55 56 52 47 44 42 42 43 44 45 47 49 51 55 57 55 50 43 39 38 39 39 37 36 35 35 36 37 36 36 36 38 40 39 38 37 36 36 35 34 31 31 32
66 65 64 62 61 60 59 57 55 52 47 42 41 43 42 40 39 40 42 44 45 45 44 43 42 42 42 42 42 41 40 39 40 41 43 45 46 46 47 47 46 47 51 54 54 51 47 45 46 47 47 47 49 50 51 53 54 53 49 45 43 42 41 39 38 37 36 36 38 39 39 36 34 34 37 37 36 33 33 35 36 35 33 31 32
65 64 62 62 62 62 62 60 57 54 49 44 43 46 47 45 42 42 44 47 48 48 46 42 40 41 42 43 43 41 39 38 38 39 39 41 42 44 45 44 42 41 43 47 51 53 52 51 51 51 51 52 52 52 53 54 54 53 53 53 50 45 41 38 38 36 36 37 38 40 40 37 33 31 32 33 33 31 31 33 34 34 33 31 31
63 64 65 67 69 66 64 61 58 55 52 49 48 49 50 49 45 43 45 47 49 49 46 42 41 41 42 42 42 41 40 39 39 40 40 40 41 42 43 43 42 42 42 43 47 51 54 57 57 56 53 53 53 53 55 56 54 53 57 59 53 45 41 40 38 36 36 38 39 41 40 37 34 32 31 31 30 30 32 33 33 33 31 30 30
63 64 67 71 73 72 69 66 61 59 57 55 54 54 53 52 49 46 45 47 48 48 45 44 43 42 42 41 42 43 44 44 43 43 43 44 44 44 44 44 46 47 47 47 48 50 55 61 64 63 59 56 55 56 59 60 58 56 60 61 54 46 43 42 38 37 38 38 39 40 40 38 35 33 33 33 32 31 31 32 32 31 30 30 30
64 66 68 70 72 74 75 72 68 64 61 59 58 57 55 54 52 49 46 47 48 47 46 46 45 43 41 42 43 44 46 46 45 45 46 46 46 46 46 47 48 50 50 50 50 51 56 62 67 66 63 61 61 62 62 63 60 58 60 61 56 50 46 43 39 38 38 38 38 39 40 38 35 33 34 37 36 34 33 32 31 31 30 31 34
67 69 69 71 74 77 77 75 71 68 63 60 60 59 56 55 53 51 49 48 48 48 47 48 47 44 42 42 43 45 46 46 45 45 45 46 46 46 46 46 47 49 50 49 47 48 52 61 67 66 63 63 66 66 64 62 59 57 58 60 57 53 47 42 38 37 37 37 37 38 40 38 34 32 34 36 36 35 34 32 31 30 30 32 36
74 75 73 73 75 76 74 73 71 68 63 62 62 60 58 57 55 53 51 50 49 50 51 52 50 46 43 43 44 45 46 46 45 45 45 46 46 46 46 46 47 48 49 48 46 45 48 57 66 68 65 64 65 66 64 61 58 57 57 58 57 53 45 40 38 37 36 36 36 38 39 36 31 29 32 35 35 35 33 30 28 28 29 33 39
78 78 77 75 74 73 73 72 70 68 65 64 63 62 61 60 59 58 56 54 53 54 55 55 53 49 46 45 46 47 46 45 45 44 46 47 48 47 47 47 47 48 48 47 47 45 46 53 62 66 66 65 66 68 65 60 56 55 56 56 55 49 42 38 38 36 35 35 36 37 38 34 28 27 31 33 33 33 31 28 28 29 32 37 43
81 80 78 77 75 76 76 75 72 70 68 65 64 64 65 64 64 63 61 59 58 58 58 58 56 53 50 48 48 47 46 44 44 46 48 49 49 49 50 50 50 51 51 49 48 48 49 52 58 63 66 67 69 71 70 63 57 56 56 56 53 46 39 37 36 34 34 36 37 37 36 31 26 26 30 32 31 30 30 30 32 34 38 42 45
79 78 77 76 77 78 78 78 77 75 72 68 66 66 66 68 69 68 67 66 64 63 62 61 58 56 53 52 51 49 46 45 46 47 48 48 48 48 49 51 52 53 54 53 52 51 50 51 55 61 67 69 70 72 73 68 64 61 60 57 51 42 37 35 33 32 34 35 36 37 35 29 24 27 32 32 30 30 32 33 35 37 40 43 46
75 75 75 78 80 80 80 79 78 76 73 69 68 68 70 71 72 72 71 69 66 65 65 63 61 59 57 55 53 51 48 46 47 47 47 48 48 48 48 50 52 53 54 55 55 53 51 48 49 53 62 68 71 73 75 73 70 68 64 58 49 40 37 36 34 33 34 35 36 37 34 28 24 28 33 34 33 34 35 36 37 39 40 43 45
75 75 76 77 78 78 77 76 74 73 72 68 68 72 77 78 76 76 77 77 74 70 67 66 64 62 60 58 54 52 49 47 46 46 47 48 48 48 48 49 50 52 55 57 58 55 52 49 47 48 55 64 69 70 71 72 72 71 68 59 48 41 39 39 36 35 35 36 37 36 32 27 25 28 33 35 35 36 37 37 38 40 42 43 43
74 74 73 73 72 72 72 71 70 71 72 70 70 73 77 80 80 79 79 80 77 73 69 67 66 63 60 57 54 51 50 48 48 49 50 50 50 49 48 46 47 51 56 59 59 57 54 51 49 48 53 61 67 69 71 73 73 74 71 61 51 47 46 44 40 38 37 37 37 35 32 28 26 28 31 34 36 36 37 39 40 41 41 41 40
72 71 71 71 71 72 73 72 71 71 70 70 70 70 72 75 78 78 77 77 75 73 71 69 66 63 60 57 54 52 51 50 50 50 50 50 47 45 43 42 44 50 55 56 57 56 55 53 51 50 53 59 66 70 74 75 75 76 74 66 60 58 55 48 42 39 38 37 36 35 31 28 27 28 30 32 34 36 38 40 41 40 39 38 37
72 72 73 74 74 74 74 74 73 73 71 71 72 72 71 72 74 75 76 76 75 74 71 66 62 60 58 57 56 55 53 51 48 46 44 41 40 39 39 40 43 47 51 54 54 55 56 55 54 52 53 58 64 70 74 76 77 76 74 71 69 64 56 47 41 39 38 36 35 34 32 28 28 28 29 32 34 36 39 41 40 38 37 36 36
71 71 72 73 73 73 72 71 70 70 71 71 72 72 73 73 73 73 73 72 72 71 68 64 61 58 56 54 52 50 48 45 43 40 38 37 37 37 38 40 42 45 49 52 53 54 56 57 56 54 54 58 64 69 72 74 75 74 72 72 70 62 51 44 40 37 35 34 35 34 31 28 28 28 28 31 35 39 41 41 39 36 35 36 37
68 67 67 67 67 68 68 68 67 68 68 68 68 69 70 70 70 70 69 67 65 64 62 60 58 54 51 49 46 43 41 39 39 38 38 37 38 39 39 39 41 44 47 49 51 52 54 56 57 58 58 61 66 70 71 71 71 69 66 65 63 55 45 39 36 33 32 33 34 32 29 27 27 27 28 30 36 40 42 41 38 36 36 36 37
65 63 63 63 64 65 66 66 66 66 66 67 67 66 66 66 66 65 64 62 59 57 55 53 51 48 46 45 43 41 39 37 36 36 36 36 36 37 38 39 40 42 44 46 49 51 55 57 59 61 62 65 69 73 74 72 70 65 59 55 52 46 40 37 35 34 33 33 33 30 27 26 27 27 27 29 35 40 41 40 38 36 35 36 36
63 61 62 62 62 62 61 61 62 62 62 63 63 63 62 62 62 61 60 58 55 53 51 50 48 46 45 44 42 40 38 35 33 33 33 35 36 37 38 39 40 40 40 42 45 50 54 57 58 59 61 65 71 77 77 76 74 68 59 50 44 41 39 38 37 36 34 33 32 30 27 25 26 27 26 29 35 40 40 38 36 34 34 35 36
63 62 62 61 60 59 58 58 57 57 57 58 58 59 59 59 59 58 57 55 52 50 47 46 45 44 43 41 40 37 35 33 32 31 32 34 35 36 38 40 40 39 38 38 40 45 50 53 54 56 57 62 72 80 81 79 76 71 63 52 43 40 40 41 40 38 35 33 32 31 29 26 26 26 27 30 35 39 40 38 36 34 34 35 37
64 62 61 59 59 59 59 58 57 56 56 55 55 56 57 57 56 55 54 52 50 48 45 44 42 42 40 39 38 36 34 32 31 31 32 33 35 36 38 40 40 39 38 36 37 40 43 47 51 55 56 59 69 81 86 83 76 69 63 55 46 41 41 42 42 40 37 34 32 32 30 28 26 25 26 29 35 39 40 38 35 33 34 35 37
64 62 61 61 61 62 61 60 58 57 57 56 55 55 55 54 54 53 52 50 49 47 46 44 42 41 40 38 37 36 35 34 35 36 37 39 40 41 42 42 42 40 39 38 37 37 39 42 47 52 55 58 64 76 85 84 75 66 61 57 49 43 43 44 44 42 40 36 33 32 32 30 27 25 26 28 32 38 40 38 36 35 34 36 38
64 63 63 63 64 63 61 61 60 59 59 58 57 55 54 53 52 51 49 48 47 46 44 43 42 40 39 37 37 36 36 36 37 39 39 40 42 42 43 43 42 41 41 41 40 39 39 40 44 50 56 59 62 68 78 82 76 67 63 59 52 46 45 46 45 44 41 37 34 33 33 32 29 26 25 27 31 36 39 39 37 36 35 36 38
63 62 62 62 61 61 60 60 59 58 57 56 54 53 52 50 49 48 46 45 43 42 42 41 40 40 39 38 37 36 36 35 36 37 38 40 41 41 41 40 40 41 41 42 43 43 42 41 44 48 55 61 64 65 70 78 78 72 67 62 54 48 47 46 46 46 43 38 34 34 35 35 32 27 25 26 29 33 37 39 38 37 36 36 38
60 60 60 59 58 58 57 57 56 54 52 51 50 49 48 47 46 45 44 43 42 41 41 40 39 39 38 38 37 37 36 36 36 36 37 39 39 39 39 40 40 41 42 43 45 47 47 46 47 49 54 63 68 68 68 75 79 77 71 64 55 49 46 46 46 46 43 38 35 35 36 36 34 29 26 26 28 32 36 39 39 38 37 37 38
57 56 56 56 55 54 53 51 49 48 46 46 46 45 45 44 43 42 42 41 41 41 40 40 39 38 38 38 38 38 37 36 36 36 36 37 37 38 38 38 39 41 42 44 47 50 50 50 51 50 52 60 69 72 73 77 80 77 72 65 57 49 45 44 44 44 42 39 37 37 37 38 36 31 27 26 28 31 35 38 39 38 38 39 38
53 53 53 53 53 52 49 47 44 43 42 41 40 38 37 36 36 36 37 38 39 40 40 40 40 39 38 37 36 36 35 35 34 34 34 35 36 37 38 38 38 39 40 43 47 49 50 52 54 53 53 57 66 75 79 81 80 77 72 65 56 48 44 43 43 43 41 39 38 38 38 37 35 32 28 26 27 30 33 36 38 38 39 40 39
50 50 50 51 50 49 46 44 43 42 40 38 35 34 33 32 32 33 34 36 38 40 40 40 39 38 36 35 34 33 33 33 32 32 33 34 36 37 39 39 39 39 39 40 44 47 50 52 53 55 55 57 65 76 83 83 81 80 74 65 56 49 45 44 44 43 41 39 38 37 37 35 33 30 28 26 26 28 31 33 36 38 39 40 40
48 46 45 45 44 41 39 38 37 36 34 33 32 32 31 31 31 31 31 33 35 37 38 38 38 36 34 32 32 31 31 31 31 32 33 34 36 39 41 42 42 41 40 40 41 45 50 52 54 55 56 58 66 77 83 84 84 84 76 66 58 52 47 44 44 43 41 39 38 36 34 33 31 29 27 26 26 27 30 32 35 37 39 40 40
41 39 39 38 36 34 33 32 32 31 31 31 31 31 31 30 30 30 29 28 29 32 34 35 35 34 32 30 29 29 29 30 30 32 34 36 38 40 43 45 47 47 45 43 41 43 48 53 55 57 59 63 71 81 85 85 86 86 79 71 64 56 49 45 45 43 40 38 37 34 32 31 30 28 27 26 26 27 29 32 34 37 39 41 41
33 33 34 35 34 33 32 31 31 31 32 32 33 33 33 32 31 30 28 26 26 28 32 34 34 33 32 31 29 28 29 30 31 32 35 37 39 42 44 46 48 49 48 46 44 45 48 51 56 62 65 67 71 79 87 89 88 87 83 76 68 59 53 49 46 42 39 38 37 34 32 31 31 29 27 26 27 28 29 31 34 36 38 39 40
32 33 34 36 35 34 33 32 33 34 34 35 36 36 35 34 33 32 30 28 27 29 32 35 36 36 34 33 32 32 32 33 33 34 36 38 39 42 45 46 46 48 47 46 47 49 49 51 58 69 75 73 70 75 84 89 89 87 86 81 73 65 59 52 45 42 40 39 37 35 34 33 31 30 29 28 28 28 29 31 33 36 37 38 38
36 38 40 40 39 38 37 38 39 38 38 39 38 38 38 37 37 36 34 33 33 35 38 39 40 40 39 38 37 37 37 38 38 37 37 37 38 40 43 44 43 44 45 46 50 54 53 51 57 71 80 78 72 73 81 89 90 89 89 87 82 74 65 55 46 43 44 43 41 38 36 34 33 32 31 30 29 29 31 32 35 36 36 36 36